Flag for Germany Weather past 2 weeks in Falkensee, Brandenburg, Germany

Now
57 °F

Passing clouds.


Feels Like: 55 °F
Forecast: 48 / 58 °F
Wind: 8 mph from North

Location: Berlin-Tegel

Current Time: May 26, 2015 at 12:00:07 AM

Latest Report: May 25, 2015 at 11:20 PM


Visibility: N/A

Pressure: 29.89 "Hg

Humidity: 67%

Dew point: 46 °F

Location of FalkenseeLocation

Historic Weather in Falkensee — Graph

°F

Falkensee temperature yesterday

Maximum temperature yesterday: 73 °F (at 2:20 PM)
Minimum temperature yesterday: 48 °F (at 1:20 AM)
Average temperature yesterday: 61 °F

Past Weeks' High & Low Weather Summary

 TemperatureHumidityPressure
High82 °F (May 12, 3:50 PM)100% (May 15, 1:50 AM)30.39 "Hg (May 15, 1:50 AM)
Low37 °F (May 15, 5:50 AM)18% (May 24, 5:50 PM)29.56 "Hg (May 19, 3:50 AM)
Average56 °F60%30.03 "Hg
* Reported May 10 10:20 PM — May 25 10:20 PM, Falkensee, Weather by CustomWeather, © 2015

Note: Actual official high and low records may vary slightly from our data, if they occured in-between our weather recording intervals... More about our weather records

Advertising

Falkensee weather history for previous 24 hours

 ConditionsComfort  
Time TempWeatherWind HumidityBarometerVisibility
10:20 PM
Mon, May 25
59 °FPassing clouds.7 mph63%29.89 "HgN/A
9:50 PM59 °FPassing clouds.6 mph63%29.89 "HgN/A
9:20 PM59 °FScattered clouds.7 mph68%29.89 "HgN/A
8:50 PM61 °FSunny.8 mph63%29.86 "Hg10 mi
8:20 PM63 °FPassing clouds.8 mph59%29.86 "HgN/A
7:50 PM64 °FPassing clouds.9 mph56%29.86 "HgN/A
7:20 PM64 °FSunny.10 mph56%29.86 "Hg10 mi
6:50 PM64 °FSunny.10 mph56%29.86 "Hg10 mi
6:20 PM64 °FSunny.10 mph52%29.83 "Hg10 mi
5:50 PM68 °FSunny.9 mph46%29.83 "Hg10 mi
5:20 PM66 °FSunny.9 mph46%29.83 "Hg10 mi
4:50 PM66 °FSunny.13 mph43%29.83 "Hg10 mi
4:20 PM70 °FSunny.10 mph27%29.83 "Hg10 mi
3:50 PM72 °FSunny.9 mph27%29.83 "Hg10 mi
3:20 PM70 °FSunny.10 mph27%29.83 "Hg10 mi
2:50 PM72 °FSunny.10 mph31%29.83 "Hg10 mi
2:20 PM73 °FSunny.13 mph31%29.83 "Hg10 mi
1:50 PM72 °FSunny.12 mph31%29.86 "Hg10 mi
1:20 PM70 °FSunny.10 mph38%29.86 "Hg10 mi
12:50 PM68 °FPassing clouds.6 mph40%29.86 "HgN/A
12:20 PM68 °FScattered clouds.10 mph46%29.86 "HgN/A
11:50 AM68 °FScattered clouds.9 mph53%29.89 "HgN/A
11:20 AM68 °FScattered clouds.7 mph49%29.89 "HgN/A
10:50 AM68 °FScattered clouds.7 mph53%29.89 "HgN/A
10:20 AM66 °FScattered clouds.7 mph56%29.92 "HgN/A
9:50 AM66 °FScattered clouds.5 mph56%29.92 "HgN/A
9:20 AM64 °FScattered clouds.7 mph56%29.92 "HgN/A
8:50 AM63 °FSunny.3 mph59%29.92 "Hg10 mi
8:20 AM59 °FSunny.2 mph68%29.92 "Hg10 mi
7:50 AM57 °FSunny.No wind72%29.92 "Hg10 mi
7:20 AM55 °FSunny.No wind77%29.92 "Hg10 mi
6:50 AM55 °FLight rain. Partly sunny.2 mph72%29.92 "HgN/A
6:20 AM54 °FLight rain. Partly sunny.1 mph67%29.95 "HgN/A
5:50 AM54 °FClear.1 mph67%29.95 "Hg10 mi
5:20 AM52 °FClear.2 mph72%29.95 "Hg10 mi
4:50 AM50 °FClear.2 mph76%29.95 "Hg10 mi
4:20 AM50 °FClear.No wind71%29.95 "Hg10 mi
3:50 AM50 °FClear.2 mph71%29.95 "Hg10 mi
3:20 AM48 °FClear.1 mph71%29.95 "Hg10 mi
2:50 AM50 °FClear.1 mph67%29.95 "Hg10 mi
2:20 AM50 °FClear.1 mph71%29.98 "Hg10 mi
1:50 AM50 °FClear.2 mph71%29.98 "Hg10 mi
1:20 AM48 °FClear.1 mph82%29.98 "Hg10 mi
12:50 AM50 °FClear.1 mph71%30.01 "Hg10 mi
12:20 AM52 °FClear.1 mph72%30.01 "Hg10 mi
Weather by CustomWeather, © 2015

See weather overviewHow to use our weather pages